GFSSGP_500_rhum_111.txt.gz
RH
21 21 18 14 11 11 10 11 12 13 13 14 19 20 20 19 19 18 16 14 16 16 13 11 9 5 2 2 3 4 7 10 8 7 6 7 10 12 11 45 20 12 8 9 11 14 31 52 62
22 21 17 13 10 13 11 9 12 13 15 17 21 22 22 24 22 21 18 18 13 11 11 12 10 5 2 2 3 4 8 13 14 14 16 50 35 10 41 67 46 25 19 11 12 20 22 26 51
22 22 15 9 11 13 10 9 13 13 16 19 22 23 22 21 23 22 17 14 11 8 12 13 11 6 3 3 7 11 19 21 23 29 24 14 22 13 38 91 39 36 23 22 21 24 20 38 56
17 17 14 9 14 12 10 7 11 12 14 14 20 23 23 21 26 26 19 13 14 12 14 15 12 8 3 4 6 10 14 23 30 53 39 55 96 89 72 32 45 32 52 19 45 39 28 46 80
14 14 12 9 13 13 6 6 10 12 12 12 18 25 23 22 29 26 19 15 14 15 19 19 15 9 4 5 6 8 12 19 53 56 94 36 84 96 90 86 96 81 51 74 44 48 54 63 87
11 12 10 11 15 12 8 6 11 10 8 13 18 23 24 23 23 23 21 16 13 11 13 20 17 10 4 6 6 6 9 20 45 52 82 92 32 58 52 89 88 90 91 90 65 51 72 78 90
12 12 9 13 16 14 12 8 8 9 5 8 11 20 26 27 24 21 25 22 17 15 12 16 19 11 6 5 7 7 9 12 29 35 86 95 72 39 68 69 81 98 94 96 87 50 74 98 91
16 13 9 13 19 20 15 10 9 12 8 7 12 16 24 26 26 26 28 27 21 17 13 16 20 12 9 4 5 5 9 9 12 35 88 99 95 98 74 90 80 87 96 96 94 61 53 63 94
20 14 12 18 25 26 22 14 12 10 9 8 11 18 22 25 25 29 30 31 25 21 16 18 19 18 10 6 6 6 7 7 8 21 64 95 82 92 82 94 90 92 93 96 94 54 51 83 70
26 19 18 30 34 33 26 20 12 12 12 10 11 16 21 27 26 30 30 32 30 24 21 19 21 22 13 8 8 8 7 7 7 18 29 51 42 88 84 84 82 94 86 96 95 68 94 94 95
35 27 30 35 40 36 30 26 19 13 11 17 14 16 21 26 31 28 27 30 36 30 25 22 23 24 18 11 9 9 8 8 7 15 24 28 38 84 86 86 92 92 89 96 96 62 95 86 81
42 37 36 44 46 40 32 30 22 16 15 20 19 19 22 28 35 31 24 28 36 34 32 27 24 25 18 12 10 10 9 8 9 22 29 42 36 85 89 100 90 88 95 98 97 96 90 95 82
42 40 38 39 45 38 35 28 28 17 23 24 25 24 24 29 28 31 26 34 47 38 36 29 28 25 15 12 10 11 11 11 13 14 15 25 26 80 90 88 90 91 89 95 97 91 64 88 88
44 43 38 33 36 35 34 30 25 22 32 28 27 25 27 25 22 20 26 40 43 42 39 31 33 29 15 13 10 11 12 14 14 15 12 17 27 60 88 97 96 95 85 85 99 77 55 89 91
42 40 43 46 44 39 41 27 25 34 37 33 30 26 25 20 17 20 30 37 41 44 42 36 34 33 18 14 13 11 12 16 16 13 14 17 30 62 76 96 96 94 85 99 98 60 67 82 85
48 45 40 39 50 51 48 31 41 43 40 37 36 36 27 18 15 16 29 34 40 46 46 43 36 35 23 16 15 12 12 21 17 13 13 20 38 52 67 95 96 95 97 97 98 78 83 96 88
40 37 41 42 44 46 42 34 39 38 36 39 36 28 22 15 14 16 29 32 36 49 50 49 39 37 29 17 16 12 14 24 18 15 13 20 61 73 96 97 96 96 95 97 96 81 70 87 90
41 50 52 48 47 49 43 34 33 37 36 32 33 26 20 16 18 18 26 29 35 50 56 52 48 39 34 19 17 12 14 22 25 19 14 17 62 88 95 94 96 94 95 96 96 97 93 99 77
41 40 40 44 49 49 44 37 34 35 30 30 32 29 22 19 23 20 27 34 34 53 60 60 58 45 37 28 21 13 15 23 28 23 14 17 54 91 96 98 97 95 92 91 84 94 98 90 49
33 34 27 40 45 50 49 36 36 32 29 27 26 26 20 17 17 22 26 34 23 50 58 75 71 59 47 38 24 14 16 20 26 21 15 15 74 91 97 97 98 97 93 88 82 96 87 65 58
22 25 31 36 44 48 42 28 36 34 29 28 22 20 19 14 13 14 12 22 15 46 61 80 86 66 52 40 24 14 18 19 22 21 15 18 77 81 96 97 97 95 97 87 90 98 81 51 78
11 19 26 30 34 35 40 23 28 30 32 29 26 16 12 10 10 11 13 16 16 44 70 76 88 67 50 41 20 14 19 22 21 22 16 16 60 74 96 97 96 97 90 92 87 96 52 70 82
6 14 21 27 29 32 28 27 21 26 30 31 25 19 14 11 17 18 15 16 16 55 65 76 78 59 52 49 18 14 19 24 21 24 16 18 49 87 88 97 98 96 94 87 69 71 80 67 58
4 8 13 21 28 25 24 28 20 25 24 26 27 24 16 17 29 35 18 17 14 58 64 73 73 67 55 53 20 15 19 24 22 24 17 15 44 79 93 96 96 98 96 85 87 94 87 62 63
2 6 11 16 21 16 23 26 20 25 24 26 24 23 22 23 30 22 17 14 14 39 62 73 83 70 52 56 21 13 17 18 20 22 22 19 49 67 93 96 96 96 98 96 96 72 57 42 57
2 5 11 11 18 20 27 20 21 23 24 26 26 22 19 17 17 16 14 13 12 39 45 82 96 90 54 56 20 11 13 11 14 20 29 33 55 76 96 97 96 96 96 97 88 38 56 54 60
2 3 6 14 22 26 21 19 20 22 22 22 23 20 18 18 17 16 13 14 16 32 72 94 98 96 59 56 17 10 10 10 10 19 24 34 52 72 97 94 97 96 96 96 97 95 95 85 86
3 2 4 12 16 19 18 17 16 16 18 21 16 14 14 15 14 11 10 18 21 28 70 100 96 88 66 44 18 9 7 10 10 15 18 29 48 52 91 97 97 96 95 94 97 97 97 96 97
7 3 3 11 16 15 16 15 15 20 20 19 18 17 16 14 12 18 19 31 36 53 79 98 98 72 65 31 21 8 7 10 10 12 16 15 16 24 51 83 96 97 97 96 96 96 96 98 98
17 12 17 8 11 12 14 15 15 18 19 20 19 15 12 11 9 20 34 40 45 64 89 99 96 79 83 37 19 10 8 10 11 12 12 17 14 13 13 16 85 96 97 97 98 97 96 97 96

GFSSGP_500_rhum_114.txt.gz
RH
18 21 20 18 16 14 13 11 11 11 11 12 14 18 21 21 20 19 16 10 9 13 11 6 5 7 6 4 2 2 2 3 6 9 11 11 7 7 8 18 10 14 10 8 11 12 25 32 32
16 19 20 18 16 15 13 11 12 11 11 12 16 18 21 22 19 18 17 15 13 12 9 7 7 7 7 6 2 2 5 8 15 19 20 31 38 44 52 22 18 47 28 8 10 15 29 43 44
21 17 16 16 15 14 17 11 11 11 10 12 15 18 21 21 19 22 20 17 15 13 10 10 9 8 8 7 3 3 7 11 17 24 43 63 52 67 43 97 63 44 38 20 22 22 33 50 49
21 17 14 14 17 15 14 10 9 12 11 12 14 16 24 22 20 21 23 20 15 12 10 8 8 8 9 8 4 4 7 10 21 35 68 84 82 92 94 74 50 73 48 60 67 20 32 24 40
16 13 12 14 18 15 12 8 8 11 11 11 11 16 25 23 21 17 19 21 17 13 11 10 9 10 10 10 5 4 6 8 14 67 53 58 76 97 96 97 96 50 80 90 50 50 27 30 49
14 13 11 14 21 17 12 7 7 11 11 8 8 16 23 24 23 21 20 20 19 18 15 11 9 9 12 11 7 5 6 6 8 18 45 62 84 76 80 72 71 86 88 65 64 62 54 48 49
18 15 11 14 22 18 16 9 9 11 12 9 8 11 16 22 24 24 24 22 22 20 18 14 11 10 13 12 10 5 5 5 5 8 20 59 84 78 50 65 70 75 75 74 87 82 59 51 57
20 17 12 11 25 24 21 12 11 12 11 10 11 11 11 14 23 27 27 26 29 25 23 17 12 10 12 14 12 7 6 7 6 7 11 44 88 70 86 87 61 73 78 91 96 95 96 72 57
23 14 10 14 27 28 26 18 13 13 11 12 11 12 10 13 21 27 29 30 33 32 28 23 17 13 12 15 14 11 8 7 8 7 9 39 94 94 83 88 74 85 89 90 96 96 91 67 71
24 18 16 21 30 32 28 23 13 13 15 13 12 12 15 17 21 22 28 29 30 30 32 28 22 17 15 16 16 13 10 8 9 10 11 25 36 46 50 80 83 91 98 93 89 91 71 55 62
39 25 32 25 40 40 35 28 21 16 15 18 16 15 17 19 23 24 22 24 26 29 35 34 30 22 18 18 17 13 12 9 11 25 31 32 33 39 48 77 83 87 96 99 94 94 86 57 83
57 44 40 35 45 45 41 36 27 23 21 21 18 18 19 22 24 25 24 21 24 31 36 40 36 28 23 21 18 14 12 9 7 8 24 33 31 45 43 76 80 88 97 99 96 96 90 72 87
47 56 51 50 49 45 44 39 34 30 26 30 21 22 23 23 25 25 27 20 21 32 43 34 38 31 26 25 20 15 13 10 7 11 18 18 26 46 43 79 82 88 95 98 97 96 90 71 78
48 43 48 49 48 53 49 47 45 37 34 36 31 27 26 26 26 24 25 26 21 32 44 37 38 36 30 26 26 18 14 12 8 8 14 14 19 23 46 76 88 94 92 97 97 97 96 80 60
50 46 44 41 44 46 47 39 43 43 42 41 35 29 26 25 26 21 22 22 22 36 42 42 42 39 35 30 30 22 16 13 9 10 15 13 14 20 33 77 77 93 91 94 91 94 97 87 61
55 48 45 46 40 43 53 36 45 41 42 42 39 34 32 28 27 20 19 21 23 31 43 44 40 46 41 35 33 30 19 14 10 13 16 14 13 19 33 65 73 86 94 90 84 86 97 81 58
52 46 49 51 48 54 49 44 61 50 47 44 38 36 32 32 26 21 20 18 22 25 39 37 44 49 45 40 36 33 23 16 11 15 18 15 13 15 39 71 89 97 92 91 93 91 93 66 63
55 52 52 57 62 53 51 44 48 46 48 47 46 43 38 33 31 25 20 16 17 22 32 35 42 52 50 46 41 37 34 22 12 16 19 20 15 14 33 78 96 96 93 95 98 98 93 66 79
78 79 55 51 57 52 50 50 48 46 42 38 35 37 36 32 36 31 21 17 17 20 30 32 35 56 55 56 52 46 46 32 13 16 20 20 19 14 30 64 97 98 93 94 95 96 96 70 55
16 42 56 46 49 49 52 43 50 47 42 39 35 31 32 33 32 30 25 18 19 18 25 27 34 55 58 66 64 53 54 39 14 16 18 20 17 14 52 82 88 97 97 92 83 94 100 84 77
27 18 17 27 37 41 43 35 43 45 43 40 38 35 31 27 30 29 26 20 17 21 25 28 25 44 63 68 68 61 57 45 15 17 20 21 16 14 40 74 87 96 97 96 93 89 94 94 98
8 27 9 14 23 29 36 28 36 32 34 37 39 36 33 29 25 21 23 20 16 16 19 25 20 42 66 74 67 62 58 43 15 17 21 21 16 14 35 63 87 94 97 96 96 95 87 92 92
5 4 5 4 10 20 24 25 24 29 28 30 36 35 33 30 25 19 14 16 13 11 15 20 17 36 61 68 63 62 60 47 16 16 23 22 17 14 31 70 84 97 97 98 97 98 96 95 86
3 3 3 3 4 10 16 22 22 22 24 27 27 32 34 30 25 18 11 12 12 16 16 19 16 30 63 64 60 64 62 47 19 14 23 22 22 14 28 66 70 97 96 99 98 97 98 99 98
3 3 3 3 3 10 18 16 17 21 24 26 26 28 29 30 28 20 13 13 22 34 25 19 17 48 66 64 70 62 61 50 20 12 20 21 23 15 42 52 92 96 96 97 96 97 97 97 97
4 3 5 3 12 11 29 10 12 19 22 24 28 28 27 26 25 25 20 19 26 27 20 16 17 64 71 70 68 62 68 48 17 10 14 19 27 30 55 56 94 97 96 95 96 97 97 98 96
5 10 2 46 80 78 52 8 9 12 19 21 26 29 27 27 25 23 20 19 18 21 18 15 16 48 76 72 70 71 77 44 12 9 10 18 31 36 51 63 94 96 96 97 97 96 97 96 92
18 4 23 71 47 15 22 42 56 14 21 23 26 28 26 24 23 22 21 19 17 17 16 16 14 31 64 69 67 82 84 37 12 9 10 15 20 48 50 70 95 99 96 98 96 97 97 94 96
19 19 81 48 18 69 75 74 100 33 22 21 22 23 20 18 17 16 16 16 15 13 10 12 16 42 71 75 89 92 78 29 12 10 13 12 16 20 43 77 88 94 97 96 97 96 95 96 91
55 29 85 86 51 32 90 88 96 42 23 19 18 18 18 15 14 15 15 13 11 11 14 16 32 63 88 85 100 94 65 29 14 11 14 13 14 14 14 54 70 86 96 96 96 96 90 97 96

GFSSGP_500_rhum_117.txt.gz
RH
18 19 18 21 19 18 17 22 18 12 11 12 12 13 17 19 19 22 17 13 9 6 6 6 5 5 4 4 4 4 2 2 2 3 8 18 23 32 48 10 9 17 21 37 6 12 12 16 18
22 22 19 20 19 19 29 30 20 12 9 11 12 13 15 18 14 16 13 10 9 8 5 5 5 5 4 4 5 4 2 2 3 6 15 28 45 65 59 48 25 21 26 34 16 9 16 27 39
24 26 21 21 20 19 32 36 30 15 11 12 11 13 13 17 12 10 10 9 9 10 7 6 5 5 5 5 5 5 3 3 4 5 19 57 72 97 98 96 96 89 53 39 20 12 25 26 46
17 26 23 19 22 24 24 37 19 11 13 12 12 12 13 13 12 11 9 10 8 11 11 8 7 5 5 5 6 6 5 4 3 4 29 55 70 91 95 96 96 96 97 67 57 31 28 19 32
16 24 26 18 23 25 34 21 15 12 13 13 14 15 16 13 10 14 12 10 9 11 13 11 10 8 7 6 6 6 7 4 3 3 6 32 57 89 83 80 96 96 96 87 86 82 42 18 28
15 22 25 21 21 30 29 20 15 12 14 14 14 16 17 8 11 16 16 13 11 12 10 10 10 10 8 7 8 8 8 6 4 3 5 9 65 94 96 83 81 85 96 78 74 56 44 22 27
15 20 23 22 23 43 44 23 12 15 16 16 15 15 18 8 14 20 19 16 13 13 13 14 15 12 10 9 11 10 10 8 7 4 3 5 27 85 66 54 55 69 82 89 81 58 63 40 36
19 20 19 21 25 29 46 26 18 16 18 16 15 16 20 6 16 20 21 18 13 16 15 16 19 18 12 10 12 11 10 10 8 5 6 17 43 83 72 52 45 71 80 74 62 74 81 69 42
38 20 12 19 28 32 39 26 24 19 20 12 17 17 14 10 17 20 23 16 14 15 15 17 22 23 18 13 14 14 12 11 10 8 11 26 29 54 88 86 76 82 66 63 84 78 90 95 81
47 42 22 29 32 33 34 26 29 18 20 18 16 19 16 15 15 20 22 17 16 14 13 17 23 24 23 20 16 18 15 12 11 8 9 21 36 46 48 56 60 72 60 84 92 86 91 97 97
51 44 45 34 37 37 32 28 31 24 19 25 21 18 18 16 16 19 23 22 18 17 14 14 18 22 26 25 22 19 16 14 12 10 6 18 42 56 60 56 60 79 66 87 90 95 91 84 78
46 52 62 56 44 34 38 36 31 30 23 29 30 24 16 21 20 20 23 24 21 21 18 11 15 19 26 25 23 21 19 15 14 12 6 22 39 40 43 44 67 83 85 87 83 86 87 74 72
55 54 65 65 63 48 44 38 36 32 34 33 32 31 23 25 23 23 24 26 24 23 20 16 16 16 24 26 26 25 22 20 17 15 8 16 31 32 41 49 78 89 86 88 87 84 88 89 80
67 61 53 57 62 60 60 49 49 37 39 36 36 33 28 30 26 26 26 27 28 28 21 23 23 16 22 24 28 29 26 23 21 17 11 10 27 28 37 48 70 91 88 85 92 95 94 96 96
69 64 58 50 54 58 64 64 53 54 59 49 44 42 37 31 28 25 25 27 27 28 25 21 27 18 22 31 29 33 30 28 28 21 14 13 27 34 40 42 57 82 93 89 92 97 98 96 95
89 75 60 56 60 61 66 35 56 59 55 52 48 52 46 40 33 27 28 29 26 26 24 21 24 18 20 34 33 36 35 32 30 23 18 8 16 23 38 39 46 72 80 91 84 96 96 97 92
87 74 75 70 76 72 55 41 56 71 61 47 43 44 43 41 36 32 28 29 30 28 27 21 28 21 19 29 31 39 40 37 35 36 29 11 10 18 25 30 39 55 74 85 93 87 89 94 96
42 79 89 67 70 82 59 50 55 59 59 47 47 45 38 36 36 36 35 34 32 29 26 23 22 18 20 25 32 43 44 44 43 44 37 18 10 17 18 25 33 58 87 96 98 89 96 88 80
68 62 24 92 93 77 70 61 56 57 58 48 51 49 46 44 40 42 44 43 38 32 27 22 21 20 21 20 34 43 46 46 48 50 42 22 11 16 17 17 15 27 64 95 97 92 99 90 84
5 24 77 58 53 98 75 59 58 56 50 49 45 46 46 45 45 46 46 39 32 34 31 24 24 23 20 21 33 41 40 43 46 53 47 24 12 14 17 16 14 40 60 77 97 98 99 98 87
4 4 19 53 24 75 80 71 61 53 51 51 47 45 42 42 42 40 38 35 32 31 29 27 21 20 17 20 22 42 32 44 49 54 49 24 13 15 16 17 14 55 67 80 97 96 94 99 91
4 4 5 19 36 42 37 48 58 55 48 47 43 44 46 44 42 41 38 34 28 27 25 25 18 16 18 16 16 29 22 41 52 58 54 28 14 15 18 17 14 46 66 85 96 96 97 97 98
3 9 25 18 43 40 37 38 34 44 46 43 41 42 45 44 43 41 38 33 28 23 21 22 18 13 15 13 17 22 20 44 58 59 61 33 15 14 20 20 17 38 91 81 97 96 96 96 97
2 13 16 17 70 78 21 46 37 60 53 41 33 33 33 36 37 37 36 33 29 25 20 18 16 11 12 15 17 30 29 37 56 64 66 36 17 10 19 22 18 28 77 78 97 97 96 97 96
6 10 59 100 97 19 16 40 30 49 73 82 66 29 29 30 30 33 33 30 27 24 18 14 11 11 16 16 18 30 31 40 57 68 66 36 14 10 18 20 15 17 59 80 95 98 97 97 98
100 100 89 95 89 4 32 62 27 61 67 40 25 25 26 27 28 28 30 30 29 21 18 15 22 31 29 23 20 21 25 56 64 71 66 32 11 9 14 22 16 47 68 86 96 96 97 97 98
100 100 92 100 98 81 69 35 20 64 66 23 17 19 25 27 28 26 28 27 28 26 17 15 19 27 23 19 16 19 47 69 70 71 74 27 9 8 17 26 36 53 82 82 97 95 96 97 97
100 100 100 100 100 84 66 69 70 85 95 71 29 22 22 25 27 28 29 26 24 25 24 21 22 26 21 16 15 23 60 81 74 75 73 24 8 10 16 31 40 55 68 84 97 96 97 98 97
100 100 97 100 98 94 72 67 78 92 100 100 99 15 22 26 26 27 27 27 25 23 21 18 17 18 19 17 15 22 50 82 73 82 63 22 8 11 13 21 27 63 82 95 96 96 96 96 97
82 100 92 93 98 86 80 76 95 85 100 96 72 31 25 24 23 23 24 23 22 20 19 17 17 16 12 12 16 25 53 52 64 88 45 22 8 11 11 15 25 75 94 97 96 97 97 97 96

GFSSGP_500_rhum_123.txt.gz
RH
15 14 14 12 14 14 14 16 23 24 26 49 43 47 36 33 19 22 25 20 11 11 12 10 7 4 3 3 2 2 3 3 3 2 2 2 11 30 54 75 91 94 67 31 38 13 19 44 50
14 15 15 14 13 11 12 20 29 30 41 40 42 38 38 23 15 12 9 14 13 12 12 10 8 4 3 3 3 3 3 3 2 3 3 4 14 15 19 52 84 96 96 92 49 23 28 36 43
14 10 10 8 7 7 10 28 43 46 53 48 41 38 36 15 12 8 7 13 12 12 11 9 9 5 4 3 3 3 3 3 3 3 4 5 7 9 13 41 73 84 96 97 95 54 25 28 25
16 14 13 9 6 8 10 24 43 49 50 46 49 44 35 14 10 8 10 17 11 12 10 8 6 5 5 5 5 5 5 5 5 4 4 5 8 5 8 26 79 83 96 96 96 88 46 24 28
30 26 19 13 9 9 11 17 39 48 48 48 44 42 34 14 12 10 8 10 17 7 7 6 6 5 4 4 5 5 6 6 5 5 5 6 7 10 12 20 50 83 97 94 96 95 90 41 17
34 34 26 23 19 13 12 24 37 46 45 46 41 37 33 17 12 11 7 10 16 7 5 6 6 6 7 7 6 6 6 7 7 6 6 7 7 8 10 20 43 75 89 95 96 90 94 80 22
27 33 33 30 29 24 16 28 39 44 53 48 46 36 37 21 11 8 8 11 10 7 3 5 5 6 6 8 7 6 6 8 8 8 8 8 8 7 10 21 33 50 58 75 97 96 94 73 35
32 27 21 29 33 30 33 25 36 49 50 53 44 40 35 24 14 8 7 11 11 8 4 3 5 5 5 7 8 6 8 9 10 10 10 10 9 6 10 18 17 54 62 72 81 82 94 92 74
28 18 12 25 27 30 44 34 43 49 39 41 50 43 34 26 19 12 7 12 11 10 6 4 4 4 4 6 7 7 9 12 11 12 12 11 11 8 6 24 35 45 71 82 80 92 89 94 78
14 7 18 36 38 33 42 51 40 44 40 48 54 39 36 31 21 16 11 13 14 14 13 7 6 5 4 5 6 5 7 12 13 13 14 13 12 13 20 25 44 68 71 75 90 92 81 72 91
16 5 20 23 45 46 44 44 54 37 24 45 62 55 33 35 28 23 20 14 12 15 16 14 10 7 6 6 6 6 5 10 14 15 17 16 14 12 10 31 46 52 58 69 72 90 74 67 82
6 14 18 16 41 55 56 65 63 56 39 22 69 49 34 36 30 26 19 17 15 17 18 17 15 11 10 9 9 8 6 7 12 15 17 18 17 13 11 20 34 59 55 51 73 84 71 76 88
13 12 12 17 27 49 66 73 66 65 51 44 32 33 32 32 29 27 20 20 20 18 20 20 20 18 14 12 12 11 9 7 8 14 17 20 20 16 11 20 41 45 52 54 79 81 81 80 84
12 12 9 13 16 39 69 74 91 57 75 63 50 34 34 27 34 32 26 28 22 19 20 22 24 23 19 16 14 14 10 8 8 10 19 21 26 19 18 12 46 38 49 61 88 91 92 89 88
8 10 12 14 30 41 69 71 70 75 90 79 74 62 59 49 43 33 30 33 34 23 21 23 26 27 25 21 17 17 13 10 8 9 14 23 27 25 21 10 21 45 49 48 70 91 97 96 93
10 15 15 13 11 28 54 51 48 69 96 96 94 86 63 65 56 46 39 35 37 38 26 27 28 26 27 28 22 19 16 12 8 8 11 23 28 32 28 20 8 25 42 46 48 85 99 97 96
11 10 9 12 9 6 8 39 49 60 94 94 93 94 93 91 78 65 51 43 46 42 38 34 31 31 28 31 26 21 19 14 12 6 7 21 28 35 38 25 16 7 22 39 43 54 85 95 97
10 10 10 10 9 7 5 6 46 59 94 97 98 92 99 95 77 64 66 68 61 55 50 44 38 35 28 35 29 22 21 16 14 8 5 16 27 39 42 32 21 10 9 22 41 43 55 71 88
12 11 10 8 9 7 7 5 8 35 100 97 94 89 97 90 79 84 72 60 62 59 53 43 35 32 26 36 33 24 20 14 12 13 7 10 23 36 45 38 25 16 8 11 14 39 48 63 89
11 9 9 7 6 5 5 6 6 14 73 90 77 76 96 95 91 73 76 80 74 56 45 36 30 26 30 36 40 28 18 16 13 12 10 13 12 32 44 40 30 21 11 9 14 18 37 39 60
7 4 4 4 6 4 5 4 4 5 22 94 89 67 82 70 85 78 89 88 70 52 48 44 34 37 45 42 40 31 22 20 16 17 17 11 11 24 43 42 38 31 17 9 15 16 18 45 71
2 2 2 3 2 3 8 12 4 6 10 34 69 78 71 68 79 87 81 76 66 57 59 55 48 45 42 38 35 32 29 20 17 16 15 11 12 18 46 46 45 43 25 9 17 18 17 22 52
5 14 23 23 34 19 8 37 4 5 7 19 32 62 69 94 99 93 90 75 69 63 56 56 52 46 37 32 34 36 32 22 18 17 16 13 11 18 31 47 50 51 37 10 12 22 21 23 58
54 56 56 46 38 89 14 29 3 4 6 17 55 71 78 96 98 75 63 68 62 58 56 49 50 42 37 33 32 33 32 26 17 19 16 15 13 19 33 50 56 58 48 12 7 18 22 20 41
71 68 75 76 82 59 53 43 4 11 9 18 84 97 99 96 95 90 62 56 56 48 49 51 49 47 40 37 34 29 24 23 19 14 15 16 17 24 40 62 59 66 64 11 7 14 19 23 18
53 90 78 100 98 78 96 58 4 11 21 40 91 79 72 81 82 76 77 61 51 48 48 47 45 44 39 38 37 32 26 21 20 13 14 22 26 31 38 72 67 71 67 10 7 13 18 30 19
67 86 100 100 85 85 100 75 24 31 31 57 72 88 98 92 79 70 52 53 48 46 42 42 42 40 37 38 36 32 30 23 17 14 15 45 48 28 36 76 81 72 66 9 8 16 25 35 30
100 100 100 97 98 67 86 62 43 51 67 70 92 64 64 93 81 56 73 66 71 43 37 39 40 38 35 35 32 28 24 18 14 14 35 52 47 28 40 64 79 78 58 9 10 14 18 33 35
99 99 99 100 99 70 76 52 97 98 67 75 69 59 42 50 79 87 94 47 27 30 30 30 30 30 30 32 32 28 20 15 17 32 42 49 36 27 38 62 74 77 48 9 11 13 16 21 49
92 90 100 100 98 94 74 77 100 100 78 93 96 52 61 92 91 98 96 37 22 21 22 24 26 28 30 28 29 30 23 20 25 27 31 39 25 22 41 57 72 81 20 9 11 12 15 32 65

GFSSGP_500_rhum_126.txt.gz
RH
10 8 7 7 10 10 12 16 18 23 27 40 41 61 55 51 46 40 29 15 11 14 15 12 11 9 6 4 4 3 3 3 3 3 3 4 4 5 9 8 13 57 62 78 97 50 46 43 45
15 14 12 10 10 10 11 14 25 29 36 42 46 48 55 47 43 39 28 18 11 12 12 11 11 10 7 4 4 4 3 3 3 3 3 4 4 5 6 6 12 43 46 82 99 95 56 50 50
15 15 13 10 8 9 8 10 23 30 34 35 56 63 49 50 44 36 25 13 11 14 10 12 11 8 10 6 5 4 4 4 5 5 5 5 5 6 5 8 21 23 53 88 95 97 91 70 35
24 18 12 8 7 9 10 12 29 36 37 30 30 57 58 54 48 42 35 15 13 16 11 10 13 8 8 9 7 6 5 5 5 6 6 6 6 6 4 10 20 26 63 94 96 96 96 92 38
18 20 19 14 12 15 18 16 24 35 40 39 31 49 50 41 40 36 24 14 15 17 11 8 13 10 7 6 6 5 6 6 6 6 7 7 7 6 5 6 21 41 64 76 74 83 94 95 79
20 19 16 17 21 22 24 26 16 34 33 38 38 36 40 27 28 31 20 15 14 15 10 6 11 10 7 6 6 6 6 6 6 6 8 9 9 8 6 6 13 37 44 47 72 96 81 99 94
23 20 17 17 17 20 36 36 26 17 24 29 49 55 41 21 28 23 17 17 16 14 10 6 9 8 7 7 7 8 7 8 7 8 10 10 10 10 8 5 10 20 26 44 52 90 89 96 89
15 12 8 14 19 18 43 44 38 28 19 30 45 56 47 30 18 19 17 17 16 16 13 6 8 7 6 6 6 6 6 8 9 10 11 10 10 10 10 7 8 29 39 44 60 62 71 87 93
6 4 4 8 19 16 45 50 46 38 29 21 28 43 45 47 10 17 22 14 14 20 12 9 6 6 6 6 5 5 5 5 9 11 12 13 13 12 12 10 14 27 49 52 56 72 78 84 95
6 5 5 8 10 10 22 48 60 48 38 29 32 28 44 38 21 16 17 18 16 20 17 14 10 8 8 7 8 6 5 5 6 8 12 14 15 15 14 11 12 34 49 54 69 72 90 81 87
6 5 6 5 6 8 9 19 66 59 47 40 34 33 27 44 26 17 18 17 23 20 21 19 16 13 12 11 10 10 8 6 5 6 9 13 16 18 16 13 10 27 47 51 56 63 79 84 78
6 6 5 4 4 5 5 7 34 73 56 52 44 51 43 42 28 20 15 19 22 20 18 18 18 17 16 14 14 13 12 10 7 7 7 10 15 18 19 15 12 31 48 51 48 52 75 91 74
6 6 5 5 5 5 7 7 10 32 69 61 54 65 54 48 38 21 12 17 19 22 21 22 22 20 20 20 18 16 14 15 12 8 7 7 14 20 23 20 10 34 43 44 50 66 82 82 71
7 6 5 4 5 6 8 5 7 3 47 94 74 70 71 57 45 38 23 15 17 31 29 25 27 26 24 24 22 19 18 17 16 12 8 7 10 18 25 24 14 20 51 46 48 72 85 78 80
8 7 6 5 6 5 10 5 4 5 27 71 96 94 94 80 67 48 41 25 19 25 30 32 31 35 30 27 25 22 20 20 19 16 10 8 8 17 26 31 24 9 34 55 54 52 73 91 87
9 8 6 6 7 7 8 6 4 11 14 20 60 94 98 99 90 70 58 46 37 35 28 32 28 34 40 34 30 26 23 20 21 19 12 8 8 14 27 32 33 18 9 26 47 50 55 88 98
12 10 9 7 8 8 9 7 4 9 10 13 20 46 75 90 96 94 84 72 56 50 40 34 25 31 40 42 37 31 26 21 23 20 14 10 9 11 24 28 36 28 13 8 28 48 45 66 79
15 14 13 11 9 11 10 10 6 8 9 8 8 22 39 49 90 94 95 91 74 58 49 40 34 32 41 44 38 32 28 26 26 22 16 11 11 10 19 25 36 35 21 10 9 18 38 44 53
16 15 13 11 11 12 11 10 8 8 8 8 8 10 28 46 64 100 98 96 100 86 58 48 44 41 43 49 43 37 33 29 25 23 17 12 14 9 13 21 38 38 27 17 8 8 11 34 48
17 14 12 10 9 8 8 9 9 6 5 6 6 6 18 82 62 94 84 92 98 96 88 59 47 49 50 54 44 42 40 32 26 23 15 16 18 14 13 19 38 38 35 27 16 6 8 12 30
10 8 6 5 4 3 5 2 3 4 8 7 5 5 8 97 93 93 94 87 98 90 88 68 69 60 55 48 41 41 42 40 31 28 18 21 23 16 16 17 37 44 40 41 28 14 7 11 15
7 4 3 4 6 8 28 9 2 2 3 6 6 5 8 88 97 100 99 100 100 90 83 92 76 61 45 39 41 46 47 45 38 31 22 19 19 21 18 22 33 50 46 48 42 24 9 10 17
4 4 4 15 26 45 36 61 10 9 2 4 4 5 14 86 100 98 98 99 100 99 90 75 77 54 46 40 45 54 54 49 42 38 30 24 23 23 18 20 27 44 50 53 52 37 12 8 16
9 23 42 39 56 52 44 100 35 23 4 2 4 6 19 51 100 98 96 82 82 89 91 92 91 70 53 54 53 51 47 45 43 40 34 28 29 23 20 21 28 32 49 58 62 56 13 8 18
44 52 51 49 37 59 65 91 42 13 5 4 7 21 27 25 72 97 86 98 96 97 90 80 75 60 55 54 49 47 41 41 38 38 37 32 26 23 23 19 28 33 49 57 67 71 17 8 10
33 49 89 97 69 76 62 69 44 16 13 18 16 51 75 65 74 57 59 71 69 86 100 80 67 60 56 51 48 45 45 43 42 37 33 34 29 23 20 20 27 34 45 59 61 70 27 8 11
33 67 100 99 66 78 85 45 29 42 45 89 75 76 59 80 83 74 78 79 74 67 81 82 72 64 57 54 58 52 52 46 61 44 30 31 30 27 21 30 43 32 35 49 46 62 39 9 11
46 56 76 96 100 95 92 60 100 67 48 79 63 69 91 100 96 72 95 98 96 81 68 63 60 73 54 51 50 48 47 62 74 47 32 30 32 31 27 52 60 30 33 42 42 61 38 10 10
68 90 98 86 98 100 61 67 99 96 84 54 43 33 67 97 100 99 98 96 94 99 97 88 76 69 51 45 44 45 43 42 45 36 33 33 29 32 38 64 65 37 38 42 46 72 32 10 10
68 54 68 81 62 64 97 88 96 100 99 66 69 27 49 99 93 90 97 98 95 95 96 96 72 51 42 43 43 42 43 41 34 45 34 23 23 38 48 67 56 36 32 31 47 68 23 9 10

GFSSGP_500_rhum_129.txt.gz
RH
14 13 13 12 11 10 10 14 23 22 20 17 22 36 27 33 37 42 54 52 50 42 19 12 8 10 9 7 6 4 3 3 3 3 3 3 4 4 4 4 5 7 14 35 57 71 92 97 41
13 12 13 12 12 12 14 15 19 22 22 20 18 38 38 56 64 60 56 48 43 37 19 12 9 11 10 8 7 4 4 3 3 3 4 4 5 5 5 4 4 8 16 39 74 86 90 99 71
20 18 15 11 10 13 13 15 16 17 26 28 30 25 25 52 60 55 60 59 52 41 26 14 9 11 10 8 8 6 5 4 4 5 5 5 5 5 5 4 4 9 21 53 54 78 87 99 83
16 15 13 14 18 20 18 17 17 15 18 32 31 18 30 29 27 44 66 61 52 39 29 14 9 10 11 10 8 8 8 6 6 5 5 5 6 6 6 6 5 8 24 65 61 75 86 100 95
18 17 14 12 16 32 34 29 21 15 11 27 27 28 23 28 27 22 20 44 50 43 22 13 9 12 12 11 8 7 8 8 7 6 6 6 6 7 8 7 5 6 19 51 40 68 93 100 98
14 14 11 12 19 26 46 42 35 28 17 16 22 15 25 32 31 30 28 36 46 39 18 16 12 11 12 11 10 9 8 8 7 7 7 7 7 7 8 8 6 5 17 23 44 48 85 88 98
14 12 7 7 12 23 44 46 45 39 25 19 16 15 20 30 37 36 31 34 33 23 22 17 15 14 14 11 9 8 6 7 8 8 8 8 8 8 8 8 8 8 12 26 40 47 76 89 100
11 9 5 5 8 12 44 41 43 43 38 24 23 20 18 19 22 21 23 24 21 18 25 20 17 15 15 12 10 7 5 5 5 7 8 8 9 9 8 9 9 8 13 29 45 60 76 80 81
8 6 6 5 4 4 21 37 47 40 35 38 23 22 23 19 24 22 19 27 27 21 22 24 19 15 16 13 12 9 6 4 4 5 6 8 9 9 9 9 10 9 15 30 56 68 81 88 87
9 8 8 8 6 6 6 10 38 30 35 46 39 32 27 24 27 41 27 41 36 25 22 26 21 18 19 16 15 13 10 7 5 5 5 5 7 10 11 10 11 9 11 34 45 63 78 94 98
11 10 9 8 8 6 6 6 11 16 18 56 51 43 40 30 27 38 32 38 61 46 23 27 24 21 20 18 16 18 16 13 10 8 6 6 6 9 10 11 12 10 11 33 47 55 69 69 92
13 10 9 8 7 6 5 5 4 6 10 60 64 53 49 40 35 31 33 33 43 80 33 29 27 25 20 19 18 18 20 18 16 12 9 6 6 7 9 12 15 13 13 28 36 48 55 76 86
13 10 8 8 7 6 6 5 5 4 9 18 72 74 62 58 46 38 35 35 35 40 39 25 27 26 22 23 20 20 22 21 21 19 14 10 7 6 8 11 18 17 11 29 33 43 56 89 86
10 9 8 8 8 7 6 6 5 5 6 6 14 74 90 72 65 58 49 42 45 44 35 26 27 30 26 25 23 23 23 24 23 24 19 13 9 8 7 10 19 22 14 16 39 39 50 86 93
11 10 10 8 9 9 7 5 5 5 5 5 6 7 56 82 67 57 62 67 53 47 45 38 38 32 26 26 28 27 25 25 26 27 24 17 12 9 8 10 13 25 23 11 25 42 51 66 93
16 14 12 12 12 12 11 6 6 7 7 6 4 5 8 48 73 68 76 69 64 64 53 48 43 40 41 40 37 32 30 28 28 28 28 22 16 11 10 10 14 20 29 19 10 24 39 47 82
18 16 14 10 12 11 14 8 6 9 9 7 6 5 7 9 57 68 84 86 83 76 69 62 47 48 50 50 44 40 36 32 30 27 30 25 20 16 13 12 15 16 30 28 16 8 28 39 41
17 15 12 10 9 9 10 8 7 10 12 12 9 6 5 9 11 60 84 99 99 93 87 77 60 56 61 54 53 47 43 37 34 31 31 30 22 18 16 17 16 18 30 30 23 13 8 20 32
18 13 10 8 10 9 9 7 6 7 8 10 12 11 7 4 8 12 49 100 98 99 98 85 75 65 63 56 50 54 51 46 41 34 31 31 27 21 19 22 20 16 24 28 28 22 11 6 9
20 16 16 12 13 9 7 6 5 4 4 5 5 7 8 5 5 8 11 36 100 97 98 99 77 73 63 53 54 59 60 52 42 36 33 32 33 28 21 24 26 20 24 27 31 30 23 12 6
19 19 15 9 6 4 3 2 3 3 10 3 2 4 7 8 4 5 7 17 64 98 98 100 95 71 68 61 62 67 67 64 54 43 36 41 39 34 23 25 31 28 26 31 34 35 34 26 12
17 12 8 5 3 3 8 16 12 28 41 25 23 3 3 8 6 5 6 14 69 95 100 99 99 90 86 75 57 64 74 74 70 58 46 46 42 35 26 22 26 31 35 43 36 41 38 38 28
12 8 5 3 4 25 18 45 30 74 73 50 36 23 2 4 8 6 7 34 92 100 98 96 96 96 96 90 73 73 77 71 58 54 49 50 44 36 30 30 31 33 32 42 38 43 42 45 42
9 6 3 4 20 26 22 38 82 68 64 46 26 16 3 4 8 6 8 50 99 75 78 75 86 99 98 97 96 85 90 67 62 57 54 52 50 43 38 33 32 38 28 29 35 41 48 44 51
5 5 12 16 22 17 51 55 79 83 84 88 28 9 4 5 6 6 19 55 94 78 99 100 97 97 98 97 97 97 75 66 70 64 57 63 54 47 42 34 33 38 33 30 34 41 53 51 52
5 8 32 65 42 31 40 60 82 100 89 82 56 57 10 6 5 5 33 59 98 98 97 100 81 100 100 98 98 90 80 79 92 65 55 56 49 49 47 39 35 34 32 33 33 46 61 51 51
4 15 44 72 55 64 50 46 64 99 100 100 56 20 5 6 6 17 38 64 100 98 100 95 93 97 98 97 98 97 98 96 96 87 56 54 55 54 54 48 37 33 29 35 38 35 51 50 41
12 26 38 64 59 52 46 53 77 71 95 77 46 45 19 30 32 42 39 64 83 94 96 98 98 91 91 98 97 97 97 96 95 88 60 59 57 50 46 44 42 38 27 30 51 34 36 44 41
23 41 66 33 74 68 59 43 82 98 87 97 70 56 65 65 88 100 100 89 73 73 92 99 100 99 96 93 96 96 90 95 96 90 91 82 76 65 45 40 41 40 31 39 65 39 27 36 33
39 33 50 99 77 87 96 44 61 98 100 100 80 99 54 88 95 97 99 99 99 100 98 100 97 92 96 97 99 97 95 94 96 95 96 93 95 64 41 38 39 39 35 47 68 50 22 27 26

GFSSGP_500_rhum_132.txt.gz
RH
18 17 16 15 14 14 18 19 17 13 14 14 14 14 12 12 25 33 40 58 60 57 51 47 40 21 13 9 7 6 4 4 3 3 3 3 3 4 4 4 4 4 4 10 24 58 89 84 99
16 14 14 13 13 13 17 18 16 13 13 12 12 11 15 13 20 35 56 68 66 59 58 56 38 23 12 10 8 6 4 4 3 3 3 4 4 4 4 5 4 4 5 16 40 53 77 85 95
12 12 11 12 14 20 20 17 15 13 11 10 10 12 18 40 30 28 48 76 68 71 58 57 43 23 11 10 9 7 6 6 5 5 5 5 5 5 5 6 6 6 7 13 40 55 69 93 99
16 14 14 15 18 20 29 27 20 16 12 12 11 12 21 35 47 49 56 65 67 67 38 33 32 31 15 13 9 8 7 6 6 6 6 6 5 5 5 5 6 6 5 13 26 48 73 82 100
18 16 14 17 22 24 29 30 25 26 25 20 17 13 19 28 41 46 49 57 48 54 35 38 29 27 14 14 11 9 9 8 9 8 7 7 6 5 5 5 5 6 11 31 28 40 66 71 82
15 13 12 15 20 22 29 24 26 31 35 32 27 24 15 18 20 21 34 41 38 40 39 46 42 31 14 15 13 9 9 10 10 9 8 8 7 6 6 4 5 6 8 24 34 40 62 68 77
10 8 7 8 14 14 20 18 20 23 36 38 33 30 23 19 17 16 21 24 37 38 36 39 35 24 18 17 15 10 9 8 9 8 8 8 6 6 6 4 4 5 7 18 40 42 60 62 64
9 9 7 8 9 8 10 7 11 13 24 41 37 33 28 26 23 19 27 29 30 40 38 34 33 32 25 19 17 12 11 9 7 6 5 6 6 7 6 4 5 6 7 14 36 46 59 69 76
11 9 9 9 8 7 8 7 11 10 7 37 43 35 32 31 30 29 27 27 29 31 24 29 36 34 31 25 17 15 15 12 8 6 4 4 5 6 6 6 6 6 7 11 38 55 65 73 78
16 16 14 12 11 10 10 9 8 8 8 20 46 42 34 33 35 30 27 29 29 33 30 33 40 40 33 25 20 19 18 16 14 9 6 5 4 5 7 7 6 6 8 9 31 45 56 64 80
20 20 19 16 14 13 11 10 9 7 7 7 16 48 45 28 38 39 36 34 43 33 43 36 26 42 43 30 22 20 19 19 19 16 10 7 6 5 7 8 6 7 8 8 19 34 42 52 67
24 21 19 17 15 15 14 13 9 8 6 6 6 16 51 33 31 39 44 42 43 46 43 43 36 28 39 44 32 25 22 20 20 22 17 11 10 6 6 7 7 8 10 9 14 29 37 47 77
25 25 24 21 20 15 14 10 8 7 6 6 6 8 20 60 42 41 48 49 52 55 48 54 40 35 29 35 34 28 23 21 21 25 23 18 13 10 6 6 8 8 8 11 10 26 34 55 86
32 28 19 15 13 11 10 9 8 8 7 7 7 6 10 33 68 50 50 54 53 65 66 60 54 43 40 27 32 28 25 23 23 26 26 24 18 14 9 7 8 8 8 12 12 23 35 43 78
27 21 16 14 14 13 13 11 11 10 8 8 8 7 6 9 55 70 56 56 57 64 86 71 72 57 49 48 37 34 27 25 25 26 27 28 25 19 13 9 9 10 9 13 15 11 19 43 55
22 20 18 18 18 16 14 8 10 12 10 8 8 9 9 7 7 73 87 71 52 62 74 83 84 78 67 48 43 37 28 28 28 27 28 30 30 25 19 11 11 12 11 12 20 17 10 15 40
22 19 17 15 16 14 14 7 6 7 8 7 8 7 10 10 8 7 72 100 88 73 75 85 84 81 69 73 47 37 32 32 31 30 30 32 31 29 27 16 10 14 13 10 20 20 17 9 14
21 19 16 15 13 10 8 5 3 3 4 6 6 8 8 9 10 10 6 36 97 100 97 95 99 88 78 76 71 59 47 39 36 35 34 33 34 31 31 25 12 14 16 14 21 21 21 17 8
23 19 14 13 10 8 7 4 3 3 4 5 5 5 5 6 7 11 11 8 13 75 99 98 96 86 87 80 83 60 63 48 41 40 38 36 36 34 32 31 20 15 17 17 22 22 21 22 17
22 18 14 10 11 9 8 4 5 5 4 4 4 4 4 3 3 6 11 10 11 15 67 100 95 100 98 75 87 77 75 69 43 42 43 40 38 36 35 37 29 20 15 19 24 27 24 24 24
26 20 17 12 8 10 8 5 4 4 4 9 19 20 21 7 3 3 5 11 9 11 17 58 100 98 98 83 91 91 79 83 70 54 49 46 42 39 39 38 34 25 21 24 22 29 28 27 28
23 16 13 13 12 9 6 4 3 6 13 17 20 17 14 14 10 4 3 6 11 9 9 16 76 98 89 77 95 87 77 78 76 83 65 51 52 41 42 40 40 30 24 25 30 29 32 34 30
19 15 13 11 9 7 4 6 6 20 30 24 63 100 89 21 21 12 4 4 10 10 8 8 12 87 100 79 81 82 79 84 93 90 78 67 68 59 47 45 44 38 34 33 27 29 34 34 34
17 13 12 10 7 5 4 18 18 56 80 34 88 97 85 63 24 20 14 3 10 8 7 7 11 20 77 79 73 64 96 95 98 96 88 86 85 76 57 56 53 44 39 38 37 27 24 35 35
18 14 10 7 6 4 8 20 34 72 67 58 75 98 96 84 60 23 15 3 10 7 5 6 7 19 27 59 66 77 97 92 100 96 96 91 82 74 59 63 57 45 40 37 38 33 32 38 33
17 11 8 6 4 3 10 23 34 70 68 54 87 100 100 100 83 48 17 4 9 7 6 6 8 64 50 51 75 86 92 97 96 94 95 95 85 59 56 60 58 50 43 40 43 35 33 27 28
12 9 8 5 5 17 17 23 83 60 76 96 94 100 99 99 94 29 15 7 8 7 6 22 69 80 99 79 89 90 95 97 95 96 99 100 75 63 59 70 65 53 49 45 46 36 30 25 33
10 8 5 4 14 28 21 33 68 69 90 94 73 100 96 71 38 31 14 9 6 6 14 41 75 98 83 82 80 95 98 89 90 96 99 98 86 66 68 63 57 57 53 52 50 38 28 27 44
8 6 4 4 28 44 33 29 78 66 74 85 100 100 100 46 38 19 21 11 23 25 55 63 84 100 98 96 98 98 100 94 98 97 98 97 90 80 66 58 68 60 56 50 42 36 26 26 50
5 3 3 9 26 42 69 32 96 83 53 96 100 100 99 86 60 68 95 98 97 94 88 89 93 98 81 88 99 97 97 92 96 98 97 97 98 93 75 80 74 60 54 45 41 36 33 27 51

GFSSGP_500_rhum_135.txt.gz
RH
20 19 19 18 16 16 18 18 15 14 14 13 13 12 13 15 20 24 32 48 53 64 68 45 49 42 26 15 11 8 7 5 4 3 3 3 3 3 4 4 4 4 4 7 15 38 61 82 92
13 14 15 16 17 18 24 20 15 13 13 12 11 11 11 12 11 13 24 47 55 72 75 46 55 60 25 17 16 10 8 6 4 4 3 4 4 4 4 4 4 5 5 6 18 46 61 70 80
12 12 12 12 14 18 19 21 24 18 13 12 12 11 10 11 11 14 23 30 38 48 55 50 55 43 24 16 14 13 9 7 6 5 4 5 4 5 7 4 4 5 7 10 27 40 39 67 84
15 15 14 16 16 19 22 18 17 19 15 13 16 14 13 12 14 15 25 32 35 59 58 51 43 38 30 28 16 13 10 9 8 7 6 6 5 5 5 5 4 6 7 22 36 27 34 62 76
17 15 14 15 18 20 18 16 18 20 21 17 20 22 20 18 18 18 26 41 51 43 59 54 38 38 36 40 23 13 11 8 9 10 8 6 6 5 6 5 4 5 16 21 33 34 29 50 65
16 15 13 12 12 12 14 14 14 16 21 18 19 25 29 26 22 22 28 35 43 49 39 42 44 40 37 39 24 14 13 10 8 10 10 8 7 6 6 6 4 10 6 9 22 27 27 45 62
12 14 12 10 10 9 10 10 11 8 9 16 17 23 30 30 28 24 20 20 30 32 29 29 33 39 37 35 27 19 14 12 9 8 8 7 8 6 6 5 5 5 5 7 22 30 32 51 52
9 8 8 8 9 9 8 7 7 7 8 9 14 14 28 30 32 30 26 24 29 34 42 39 37 34 38 37 31 27 16 14 13 10 8 6 6 7 6 6 6 5 5 8 30 45 44 57 68
13 12 15 15 15 14 12 10 9 8 8 9 11 9 9 17 31 35 33 30 32 34 34 38 34 31 26 27 32 30 18 17 16 14 11 7 5 5 6 6 7 6 6 8 31 47 51 50 78
20 20 18 19 19 18 18 16 13 12 10 10 9 9 8 8 13 34 36 36 34 36 38 36 39 34 31 33 30 29 20 20 18 17 16 11 7 5 5 6 8 6 6 7 13 48 55 64 60
25 24 23 23 23 23 22 18 15 13 10 10 8 8 7 7 8 11 29 35 38 39 45 58 48 41 34 37 32 28 22 21 20 19 19 18 11 7 5 7 8 7 7 8 14 19 30 52 57
30 29 28 28 28 28 26 22 17 14 13 9 8 7 8 7 8 7 22 37 32 40 50 66 62 51 42 39 41 32 24 22 23 21 20 22 16 11 7 6 8 8 8 7 9 14 27 47 49
38 36 34 31 30 34 32 27 26 11 9 8 8 7 7 7 7 7 6 20 40 43 48 50 62 74 69 42 46 37 31 29 25 22 23 23 21 16 11 6 7 8 9 7 10 11 21 34 39
43 39 38 39 39 41 36 21 18 13 12 12 11 11 9 8 7 6 11 8 22 47 52 59 55 56 85 53 48 48 40 35 28 23 24 26 25 22 17 11 6 9 10 9 9 10 15 28 37
50 48 48 47 33 23 22 22 17 17 15 14 13 12 11 11 10 8 7 14 20 24 48 59 62 63 64 64 57 57 53 42 32 24 25 27 28 26 23 16 9 8 10 10 10 11 12 11 21
66 62 46 27 26 26 23 15 16 15 12 10 10 8 7 7 7 9 9 8 54 21 32 46 63 62 61 68 75 66 66 62 40 26 25 28 30 30 27 22 16 9 8 11 11 12 16 13 9
66 45 37 30 26 20 18 13 12 11 9 8 6 5 4 3 4 7 8 10 9 88 47 37 67 69 70 72 87 77 73 78 48 33 26 28 31 33 32 27 22 16 8 11 11 13 18 17 14
58 47 35 27 24 20 17 13 12 10 7 5 4 4 3 3 2 3 4 6 9 9 72 57 53 89 88 80 86 76 77 78 59 38 27 28 33 33 34 31 27 21 15 11 12 14 20 20 18
44 37 31 25 22 17 16 12 8 6 5 3 3 3 2 2 2 2 2 3 3 7 8 61 61 70 100 93 91 76 68 80 74 56 32 32 33 35 34 34 31 28 21 14 15 15 23 22 24
42 35 29 25 22 18 13 9 6 5 4 3 2 2 2 2 2 2 2 2 3 4 8 8 42 68 74 100 98 98 88 85 93 74 51 38 37 36 36 35 35 33 29 23 16 14 22 26 28
41 34 28 25 18 14 9 6 4 4 3 2 2 2 3 8 19 34 38 41 19 4 5 10 9 44 58 93 100 88 99 90 91 76 63 49 42 40 40 38 38 37 35 25 21 16 18 28 28
45 37 28 23 17 11 8 5 3 3 2 2 3 5 11 11 32 30 43 61 27 8 5 12 10 12 60 100 96 98 98 83 75 74 88 65 52 46 47 44 41 41 38 32 26 22 16 19 31
43 33 27 19 14 10 8 5 3 3 3 5 10 11 14 34 50 66 80 81 12 11 6 10 12 8 25 79 100 89 85 72 98 94 90 92 86 64 61 52 44 44 42 40 38 28 22 17 25
41 29 22 18 13 8 5 4 3 6 14 14 11 19 37 85 94 99 92 44 43 13 7 8 12 8 10 24 50 96 69 88 90 92 94 77 94 89 78 64 53 47 48 44 45 34 27 24 20
35 26 21 15 10 6 5 4 4 22 33 34 19 23 55 100 97 100 91 42 56 18 8 8 13 9 8 19 29 44 67 90 87 98 99 90 84 91 98 79 61 69 73 55 50 40 31 34 26
31 24 18 12 9 6 5 3 7 26 46 71 63 94 98 98 82 97 99 84 60 15 8 9 13 10 8 9 10 35 44 100 92 98 91 83 85 99 100 92 80 77 72 65 50 43 38 37 39
30 22 16 10 7 6 4 3 10 25 42 68 72 100 70 100 66 64 100 78 52 16 8 11 12 11 9 8 8 11 16 28 61 100 77 95 84 90 98 97 75 75 65 68 58 49 48 48 44
26 19 11 8 7 5 3 4 17 18 28 61 71 92 100 100 72 55 100 67 41 14 9 12 11 10 8 5 5 5 10 22 31 100 87 94 92 77 82 87 68 70 66 65 69 68 53 50 45
22 14 10 9 5 5 3 6 28 24 41 44 63 96 100 91 88 93 99 63 14 8 9 9 7 9 16 15 10 6 18 23 28 56 76 92 84 92 93 84 89 75 73 59 71 67 56 53 51
17 10 11 7 5 4 8 13 38 48 54 38 64 98 100 100 98 100 100 66 30 8 8 7 7 8 33 19 24 60 76 96 70 73 81 98 98 80 87 97 96 76 60 62 64 58 56 50 48

GFSSGP_500_rhum_138.txt.gz
RH
21 17 16 18 18 19 20 17 14 12 12 13 12 14 13 12 10 18 19 16 19 25 38 33 24 34 31 33 22 15 8 7 5 4 3 3 2 2 4 4 4 4 4 5 6 14 40 59 70
12 12 14 15 19 21 34 20 13 14 14 14 12 11 11 10 10 12 13 15 18 23 27 32 23 29 34 25 27 26 10 7 6 6 4 3 3 3 5 8 4 4 4 10 14 25 39 39 55
12 13 14 14 16 20 25 17 14 13 13 16 16 13 12 10 10 13 15 18 35 38 28 28 28 31 35 33 33 33 16 7 6 7 6 5 5 6 21 15 5 4 7 11 32 40 33 30 60
14 14 14 17 19 20 18 16 14 12 13 15 17 17 16 15 14 15 16 18 19 34 40 39 29 29 39 36 32 34 23 10 6 8 7 7 7 6 6 6 6 5 8 18 29 44 30 27 52
11 10 11 15 20 20 16 13 13 13 11 11 14 18 19 21 18 20 20 19 18 28 43 44 32 28 25 26 28 34 27 13 6 6 8 9 8 7 6 6 6 7 20 12 27 28 27 28 42
9 8 11 16 16 14 12 10 9 9 11 10 12 17 17 12 20 26 26 23 22 23 33 38 38 32 26 26 32 29 30 15 9 6 7 9 9 8 7 6 6 6 6 6 9 22 25 38 47
12 10 10 15 14 12 10 9 8 7 9 9 8 12 11 5 10 23 29 28 25 24 28 29 28 26 26 27 32 32 25 23 13 6 6 7 7 9 7 7 6 6 6 6 8 25 36 36 46
18 15 13 12 11 12 10 9 8 8 8 8 7 7 8 9 10 14 26 32 32 28 26 26 26 28 32 31 29 28 24 25 15 9 6 6 6 7 8 7 7 7 6 6 16 34 46 43 49
24 20 18 17 17 16 16 16 16 14 12 10 9 9 9 11 12 13 22 32 33 32 30 28 30 32 33 33 28 30 29 24 23 11 8 7 6 6 6 7 8 8 6 6 12 34 60 65 64
27 24 22 22 22 22 22 21 21 20 18 16 13 12 11 10 10 16 18 36 43 39 36 34 34 37 34 32 33 32 31 28 24 18 10 10 9 7 6 6 8 8 7 7 8 41 51 61 54
33 31 29 28 27 26 27 26 26 24 19 17 14 13 12 11 9 10 17 24 42 50 47 43 38 37 41 37 35 40 35 35 28 19 13 12 12 10 8 6 9 9 8 8 9 24 48 46 42
37 36 35 34 33 34 33 30 28 26 21 18 17 14 12 10 8 7 7 10 20 43 56 56 49 45 47 53 40 38 44 39 33 24 16 14 15 15 12 9 8 9 8 9 8 16 22 29 41
49 46 44 43 43 42 38 36 36 24 24 22 17 11 9 8 8 7 7 7 8 20 46 60 64 51 50 50 57 43 48 46 39 27 20 16 16 18 17 14 9 9 9 10 9 10 16 30 40
64 63 62 58 54 50 46 44 47 23 19 18 17 16 15 14 13 12 11 9 7 7 22 52 66 85 66 48 53 73 48 52 43 38 30 22 17 18 21 19 14 9 9 10 10 11 10 21 30
71 70 68 66 63 58 57 39 26 25 22 18 16 14 13 11 10 10 10 10 10 9 8 10 24 61 82 80 51 58 81 54 51 48 47 32 21 18 22 24 20 13 10 10 11 13 11 11 14
80 80 80 68 67 58 42 33 28 22 18 16 14 12 11 10 8 7 6 5 6 9 10 8 8 26 67 89 87 66 60 57 56 53 55 45 24 21 22 24 25 20 13 11 14 13 13 15 12
75 73 62 56 51 47 41 32 24 21 18 16 14 12 10 7 5 4 4 3 3 4 5 9 9 9 22 79 90 84 83 56 54 56 63 62 32 23 24 25 29 27 20 13 13 16 14 17 17
70 78 81 69 49 39 32 26 22 20 17 15 13 11 8 6 5 4 4 3 3 2 2 3 5 9 9 32 87 92 84 79 46 48 57 65 38 26 25 28 30 31 26 19 12 14 16 19 20
81 76 59 51 44 36 30 26 22 19 16 12 8 8 7 6 5 4 4 4 4 3 3 2 2 2 6 9 39 79 73 90 80 62 72 77 48 34 26 29 30 34 33 26 21 12 17 20 22
75 70 63 53 44 38 35 30 20 13 10 8 7 7 6 5 4 3 2 2 2 2 2 2 2 2 4 6 12 62 98 100 100 99 83 87 67 38 27 29 30 34 36 33 29 24 15 20 22
82 73 62 52 48 44 33 21 18 12 8 6 5 4 3 2 2 2 2 9 15 8 23 31 26 6 6 12 9 37 100 96 97 72 65 73 60 40 31 32 32 34 36 37 34 29 24 17 19
76 69 65 60 51 34 24 19 12 9 6 4 3 2 2 2 2 8 40 42 65 61 59 46 40 26 7 13 11 14 78 65 34 70 72 70 76 60 45 38 37 37 36 38 38 33 32 23 18
75 66 65 55 42 28 20 15 8 6 5 3 3 2 3 5 9 33 44 68 46 61 48 52 75 72 17 10 13 15 62 38 96 78 96 74 90 77 67 52 44 42 42 39 40 38 37 36 27
72 70 67 52 35 25 16 10 7 6 4 3 2 2 5 11 24 32 62 53 67 63 54 56 64 51 43 10 13 12 21 40 71 94 83 76 82 89 83 67 55 50 48 46 42 41 39 40 35
83 74 62 46 31 20 13 9 6 4 3 3 2 4 17 38 64 69 62 90 70 54 68 83 47 25 40 12 13 11 15 66 83 84 68 98 75 85 81 91 74 65 58 53 47 44 45 42 40
77 73 58 39 26 17 9 7 6 4 3 8 18 17 49 84 75 63 58 97 60 63 62 35 26 27 25 11 12 11 23 35 42 92 92 96 87 94 99 99 94 83 70 63 61 58 66 52 47
76 66 49 34 23 15 11 6 5 4 3 16 16 34 53 94 68 57 96 92 49 56 59 31 22 21 13 12 10 9 18 31 44 78 70 92 100 99 92 96 92 94 84 68 66 63 75 68 55
80 60 44 28 17 12 8 6 4 4 3 10 12 34 44 97 83 66 97 94 32 72 47 17 14 10 10 13 9 8 13 18 29 65 86 99 68 81 92 95 91 98 94 73 67 69 78 68 66
69 58 40 22 12 10 8 10 4 4 6 16 19 42 38 76 84 56 95 100 20 39 52 40 12 12 12 21 10 31 32 20 14 21 45 80 42 97 70 96 100 93 99 90 72 83 76 65 65
80 64 31 15 13 10 6 7 4 8 30 45 38 29 42 62 100 82 96 98 43 13 16 23 33 38 27 13 17 10 18 35 36 10 9 20 28 70 56 92 94 100 100 92 94 98 96 91 61

GFSSGP_500_rhum_141.txt.gz
RH
22 22 20 16 18 20 28 36 20 16 14 14 13 13 14 14 12 15 15 8 10 14 15 16 17 15 15 19 21 28 32 15 6 4 4 3 3 3 3 4 5 4 4 6 10 14 28 40 45
20 13 13 14 16 41 38 33 27 10 13 12 13 15 13 10 10 10 10 11 10 12 14 19 22 21 19 17 21 26 29 22 9 5 4 3 3 3 5 18 18 8 10 15 16 25 39 38 35
12 12 13 14 16 40 45 34 11 10 12 12 12 13 13 12 12 12 12 13 15 16 16 18 21 20 22 24 22 23 27 28 13 6 4 4 3 3 14 19 9 10 9 13 31 30 36 38 25
14 15 15 17 20 55 32 14 14 11 10 12 13 14 13 16 14 16 17 16 17 19 20 19 18 17 17 22 23 24 30 28 22 8 6 10 9 16 11 8 5 5 8 24 17 27 31 31 21
16 13 14 12 21 66 17 18 16 13 9 10 13 13 15 10 13 18 21 20 20 19 19 22 24 21 18 21 22 24 26 27 28 14 6 6 9 9 10 9 11 6 6 8 11 11 11 24 22
15 13 12 14 72 34 18 12 13 11 9 9 9 12 15 6 7 17 23 27 24 23 21 21 20 20 20 21 21 24 25 25 21 22 9 6 6 8 8 8 12 5 6 6 5 8 17 25 39
20 18 17 13 19 23 11 8 10 8 9 8 8 12 13 6 7 11 22 31 30 27 26 25 24 22 24 20 21 24 26 27 26 20 17 6 6 7 6 5 13 6 6 6 5 15 32 42 42
24 24 22 18 15 18 12 11 11 11 9 9 8 8 8 8 7 8 9 19 33 36 32 31 29 28 26 26 22 23 24 27 28 27 18 10 5 6 6 6 6 6 7 6 6 11 40 52 50
23 25 27 24 20 18 19 20 19 17 16 16 16 15 11 10 9 9 10 11 25 38 39 34 32 29 31 30 30 25 24 24 29 26 25 17 8 5 5 6 6 6 6 7 7 9 34 52 71
32 29 31 21 25 26 26 25 24 23 22 21 22 23 19 14 12 11 11 10 16 30 38 40 39 38 37 37 36 36 29 25 26 31 24 23 16 7 5 4 5 5 5 7 8 7 34 43 50
42 39 31 32 32 32 32 30 29 29 28 28 25 26 23 17 14 12 10 10 12 22 44 52 47 47 49 47 44 42 44 36 28 32 31 22 18 13 7 5 4 5 5 7 8 9 28 54 52
50 45 43 38 38 39 39 38 37 36 32 29 25 27 27 26 20 19 14 9 9 10 23 48 54 55 58 55 58 50 44 51 45 27 36 29 22 15 16 7 6 5 7 7 8 9 14 30 54
59 54 52 49 50 50 51 48 45 39 37 34 37 34 26 22 17 12 10 9 8 7 8 9 28 45 57 61 66 61 58 52 50 44 32 36 26 19 14 10 8 6 7 7 8 9 14 39 32
61 65 63 62 61 60 62 59 56 45 47 45 31 22 20 19 17 15 13 13 12 12 11 8 8 16 49 64 65 70 68 60 42 40 40 37 35 24 20 16 11 9 7 7 8 10 26 50 35
57 64 64 66 61 62 65 64 56 50 36 30 28 24 19 16 14 13 12 11 11 11 11 11 11 8 9 27 54 68 81 71 61 35 41 28 40 43 36 21 18 12 11 8 8 13 22 43 31
58 65 72 50 61 54 56 52 48 43 40 33 24 19 18 16 15 13 11 9 8 7 6 6 6 7 9 9 19 59 83 88 67 50 35 33 32 43 47 29 21 19 15 14 8 11 17 31 27
60 64 61 64 47 65 65 60 47 38 31 26 22 20 18 16 12 9 7 5 5 4 4 3 3 3 3 4 6 10 51 84 97 61 29 33 36 36 49 40 23 24 19 18 15 9 13 20 17
58 49 60 76 70 62 58 49 42 35 30 27 24 21 17 13 12 9 8 8 8 6 5 5 5 4 4 3 3 3 26 22 86 79 36 20 42 42 44 53 35 24 25 22 22 16 10 14 13
62 66 69 72 63 62 56 50 42 37 33 30 26 23 19 14 14 11 10 9 9 8 7 6 6 5 4 3 4 3 3 28 38 80 51 39 37 51 47 48 48 26 26 27 25 22 15 13 15
63 64 72 64 67 65 58 44 43 44 36 26 18 15 13 12 8 7 6 8 7 6 6 4 3 3 3 2 2 2 2 3 39 69 82 56 54 61 58 40 50 31 27 28 30 30 24 17 16
67 69 74 67 65 66 59 51 46 40 30 26 15 11 9 7 7 5 4 4 5 3 2 6 13 23 21 10 2 3 4 2 8 52 90 76 63 82 84 54 54 40 29 29 32 31 32 27 19
60 49 73 68 62 67 60 52 33 30 25 18 11 9 7 5 5 3 2 2 2 9 21 23 27 28 44 60 40 6 8 12 8 36 86 100 54 86 90 77 50 53 32 30 34 34 34 34 32
31 61 71 77 74 64 60 54 54 28 20 13 9 7 4 5 4 2 2 12 21 31 39 32 37 43 38 51 66 26 10 11 17 78 76 97 58 74 100 79 59 56 33 33 35 36 35 36 40
54 68 78 82 79 70 61 47 30 21 17 10 6 4 4 4 2 3 44 36 36 41 45 79 67 39 40 46 47 52 28 18 12 68 91 97 89 78 100 79 60 68 54 37 39 38 38 38 38
46 69 88 75 69 64 56 47 27 22 16 9 5 4 4 3 2 11 52 65 58 56 71 55 36 50 60 66 52 63 43 35 8 20 94 99 97 86 100 79 71 77 70 55 47 45 44 42 41
50 74 82 76 76 66 52 39 23 21 13 9 5 4 3 3 3 39 74 66 35 79 59 29 51 56 43 41 64 59 70 42 10 18 78 92 96 76 98 74 81 98 87 83 65 59 54 51 43
48 71 80 77 70 61 50 34 32 23 11 6 4 3 3 3 20 22 53 45 48 94 20 45 66 48 55 75 56 70 73 73 10 15 79 95 82 97 96 69 85 97 100 96 89 78 73 61 57
65 76 85 78 69 55 43 25 52 15 7 5 4 3 5 12 36 39 60 38 67 77 24 61 64 55 51 57 43 56 74 35 10 14 34 79 64 49 89 52 94 98 92 89 87 99 95 76 67
80 86 86 84 69 56 39 44 26 13 6 5 4 3 6 26 30 36 61 56 95 66 25 66 42 47 75 77 52 27 13 14 13 23 52 96 94 84 97 90 99 98 84 97 86 85 98 83 79
78 88 88 91 71 60 29 26 21 10 6 4 3 3 9 33 40 59 81 75 92 73 17 49 42 43 56 100 60 48 25 87 69 56 64 98 98 100 60 84 98 72 95 99 92 90 94 86 68

GFSSGP_500_rhum_147.txt.gz
RH
19 18 18 22 21 17 37 42 26 18 26 31 33 26 18 16 16 15 15 20 11 14 12 11 10 12 12 13 15 15 13 13 16 17 9 4 4 4 3 3 2 2 5 10 13 14 26 28 32
17 20 20 21 13 30 24 26 42 37 33 37 32 35 14 10 14 16 17 13 9 11 10 11 12 14 13 14 15 17 16 14 12 15 12 6 4 4 4 3 4 9 14 11 8 18 18 23 19
9 12 16 14 15 52 36 58 55 51 44 39 27 28 16 9 10 15 18 15 10 14 15 14 15 15 16 14 14 15 19 21 20 12 15 9 5 6 9 9 10 17 21 11 8 8 12 14 9
12 12 13 14 17 37 27 70 25 35 34 34 38 23 16 10 10 17 17 18 14 13 17 14 16 16 15 11 13 13 15 20 23 20 13 14 8 11 10 19 21 18 17 10 8 9 8 5 14
14 15 16 17 25 49 55 58 22 24 18 15 23 22 14 10 9 12 13 20 13 12 12 16 14 14 13 12 12 13 14 15 20 23 21 14 12 8 5 9 16 15 22 16 11 10 5 6 15
16 15 16 21 20 29 71 84 36 34 26 24 13 14 13 10 7 7 15 13 11 9 9 14 10 9 11 11 11 13 13 14 16 20 22 21 15 10 6 5 10 12 15 18 6 7 5 5 21
23 19 18 20 19 17 96 71 46 43 30 18 15 11 8 8 8 8 7 7 10 6 8 11 10 10 11 12 13 14 15 14 14 16 21 22 19 16 10 5 5 8 12 12 5 5 5 6 36
30 24 22 22 31 65 36 39 15 14 18 19 15 13 14 14 13 12 11 10 10 10 10 9 9 9 10 12 13 14 16 16 17 18 18 21 24 19 16 9 5 5 7 6 5 5 5 6 24
37 35 32 28 26 30 20 18 16 22 30 20 19 19 19 20 18 17 16 16 17 17 13 12 12 10 12 15 13 15 15 18 19 19 19 21 24 26 20 17 8 4 5 6 5 5 6 6 17
35 45 42 36 27 25 25 25 26 36 31 24 20 23 25 24 23 22 21 21 23 24 22 16 13 14 24 25 17 16 17 18 21 19 18 21 23 28 27 19 16 11 5 4 5 5 5 6 12
30 49 52 46 42 38 38 38 38 37 37 31 32 33 30 29 29 27 28 27 27 27 28 28 23 15 14 26 55 27 20 22 22 21 15 15 20 27 32 27 19 16 10 6 4 4 5 6 7
27 38 59 45 54 56 49 48 47 46 43 41 42 40 39 40 36 38 40 37 33 31 33 38 37 29 17 15 13 46 39 16 23 27 20 11 10 15 22 33 27 20 16 15 7 4 4 6 7
40 41 54 55 65 67 64 56 54 52 49 50 52 52 52 51 46 40 41 44 44 45 42 28 17 13 10 9 8 18 55 51 26 20 21 18 10 10 16 22 32 28 19 16 10 7 6 6 8
39 52 59 50 56 67 72 71 64 59 60 65 57 56 54 48 38 43 43 44 31 26 23 20 18 17 16 14 11 8 8 17 32 39 17 19 17 10 10 17 27 31 29 21 17 11 10 9 8
56 51 54 57 61 49 72 74 68 60 63 62 56 53 47 42 38 35 36 37 31 22 18 16 14 13 13 12 12 12 13 12 12 16 49 18 12 13 10 10 18 30 32 33 23 17 12 13 10
63 63 62 61 59 49 68 73 58 60 56 53 56 55 47 33 31 39 34 28 27 24 20 18 16 14 13 12 11 11 10 9 10 12 13 30 19 13 11 9 11 23 26 27 36 30 16 14 16
60 65 61 52 49 46 50 63 62 61 48 40 42 34 23 24 40 42 39 38 36 35 32 26 21 16 11 7 7 5 5 6 7 7 10 21 49 19 10 10 15 12 21 17 20 26 21 16 18
49 51 67 48 38 34 31 62 80 83 69 48 35 21 16 46 42 49 48 45 36 24 20 16 11 10 9 9 8 6 6 5 4 4 5 5 10 56 16 8 10 10 12 20 24 26 24 19 16
56 55 46 36 30 22 21 53 66 66 53 30 18 8 19 35 31 36 38 34 23 17 14 15 16 17 16 15 13 11 10 8 9 8 5 4 4 11 58 8 6 9 10 15 25 17 24 24 18
56 50 48 53 40 20 43 38 64 71 37 20 7 6 31 33 32 34 36 34 28 24 22 19 16 14 12 10 7 6 5 4 5 4 5 7 6 5 18 62 25 11 10 16 20 19 22 23 23
36 35 32 35 48 29 42 18 38 30 19 8 6 7 34 40 39 40 38 33 26 22 20 16 14 11 7 5 2 2 2 2 2 2 2 3 3 6 6 31 66 33 24 14 23 21 16 29 32
42 42 26 26 27 19 35 21 46 46 12 7 6 6 45 40 35 35 31 28 24 17 14 12 5 3 2 1 2 3 4 11 24 11 3 3 2 2 4 10 43 80 46 22 24 38 22 21 34
24 31 35 23 16 12 37 39 29 56 12 8 8 14 50 44 42 35 31 30 23 15 7 3 2 2 3 12 20 24 30 37 32 32 20 14 14 4 2 3 15 78 92 40 39 52 49 21 34
21 31 34 29 24 11 44 48 35 42 17 9 8 38 55 50 41 37 31 25 16 7 3 2 2 18 21 20 43 47 32 25 23 27 33 28 20 16 7 4 15 28 96 74 37 52 80 52 55
25 36 36 30 27 21 47 73 50 34 21 14 26 60 61 48 40 35 29 18 11 5 3 2 9 47 45 59 45 24 33 33 34 28 26 27 27 22 22 7 8 30 66 97 67 35 98 90 72
24 26 26 31 27 25 52 72 59 45 45 40 57 70 66 54 39 36 28 16 9 4 2 2 39 45 48 65 29 38 44 44 47 49 36 30 45 41 28 31 15 13 69 80 56 74 100 100 88
37 36 50 40 56 52 70 73 67 50 38 38 58 73 64 43 41 38 25 11 6 3 2 11 50 38 57 48 24 54 48 76 95 68 56 42 41 43 31 33 36 29 24 73 93 91 100 100 90
65 55 55 63 70 72 56 92 74 42 42 51 63 68 61 42 44 33 13 8 4 3 2 21 47 42 63 38 22 58 78 94 99 70 89 94 56 42 36 23 31 35 40 93 97 99 86 98 95
82 81 71 81 82 70 68 81 82 62 61 71 72 70 63 47 43 17 10 9 4 3 2 15 41 65 71 51 28 47 96 100 100 83 75 99 70 51 42 26 37 88 80 77 95 94 97 100 97
69 72 80 82 80 80 77 77 87 91 78 72 68 76 45 44 29 15 11 8 4 3 2 9 40 73 72 58 24 36 96 100 88 71 61 66 56 44 33 56 54 67 63 73 91 94 99 98 98

GFSSGP_500_rhum_150.txt.gz
RH
8 11 13 19 21 22 21 19 21 32 44 44 43 41 37 31 25 21 22 18 16 16 14 11 10 9 9 10 11 14 15 14 11 10 9 10 6 4 3 3 3 6 4 7 9 13 13 21 26
8 12 16 21 20 19 23 27 34 29 36 36 39 34 32 31 23 20 17 13 13 13 12 11 11 11 11 11 11 14 16 17 16 14 12 9 9 5 4 7 3 4 15 18 14 15 16 19 17
7 7 9 16 17 16 19 22 28 24 40 48 47 45 36 30 28 17 14 11 15 14 13 14 14 14 11 10 11 11 12 14 16 17 14 13 11 7 9 14 13 8 20 22 19 8 12 11 10
11 10 11 13 17 32 17 20 21 14 49 42 40 35 27 27 20 15 12 12 15 14 15 12 15 9 9 8 8 9 10 12 13 16 17 15 14 12 6 7 13 20 24 20 13 12 8 14 5
14 13 14 17 20 16 20 24 26 16 19 23 29 23 29 22 16 12 11 13 12 12 12 10 7 11 6 6 6 8 10 11 12 13 16 16 15 16 9 5 6 13 14 20 25 14 11 7 5
20 19 17 20 15 19 22 22 14 10 9 10 15 17 25 19 12 9 9 12 9 9 10 9 7 6 7 7 7 8 8 10 12 12 12 14 13 17 15 7 6 7 12 18 22 13 6 6 5
20 24 24 24 24 21 18 16 15 13 15 24 16 13 19 15 10 9 8 8 8 8 9 9 10 10 10 10 9 9 11 12 12 11 10 10 11 12 19 12 8 7 7 11 17 10 6 5 5
19 24 32 30 28 24 20 21 19 17 15 20 25 22 17 14 16 16 14 12 11 11 11 10 11 12 12 11 12 15 16 16 16 13 13 10 10 13 15 20 12 10 8 6 8 7 6 6 6
19 26 38 34 30 25 22 22 26 20 19 25 37 24 18 19 24 23 20 17 15 16 16 17 16 16 17 18 17 14 14 14 13 13 14 16 14 15 17 21 19 15 11 9 6 6 6 7 6
19 27 32 38 38 36 32 28 27 28 24 28 28 28 24 22 22 24 21 20 21 22 22 22 25 23 22 22 18 32 57 52 34 14 13 14 15 16 19 19 22 20 17 14 10 7 5 6 6
20 26 28 32 36 43 47 47 44 37 38 36 30 24 30 29 22 25 28 31 34 35 36 34 31 29 29 26 22 34 48 35 56 48 16 15 13 13 15 18 21 25 21 18 15 13 9 6 6
25 38 32 52 54 58 63 59 55 51 47 44 40 41 37 34 33 34 36 40 46 47 47 45 43 42 43 43 36 30 25 37 44 37 76 32 15 11 11 14 17 25 26 22 18 17 16 12 7
38 30 40 57 62 70 76 71 69 65 61 56 52 48 45 45 45 45 49 54 53 50 50 47 40 33 28 24 20 16 12 14 18 60 64 81 48 16 11 10 14 19 28 27 22 20 20 19 14
44 29 31 34 52 65 66 61 66 69 69 66 60 55 53 45 39 43 45 44 42 40 38 36 33 29 25 21 18 17 16 13 10 9 36 64 52 44 15 10 10 18 26 28 28 24 26 25 21
59 58 45 39 46 47 60 62 68 68 68 65 49 46 42 36 39 48 49 44 39 36 34 30 26 23 20 18 16 15 14 13 13 14 13 18 45 30 29 20 8 11 18 28 30 27 28 34 28
52 55 57 55 47 49 61 68 66 71 69 59 39 34 28 33 49 48 44 35 33 37 38 38 35 31 26 22 20 17 16 15 13 12 10 10 12 40 31 26 15 9 14 16 29 35 38 37 36
60 58 53 53 51 52 61 71 66 63 57 40 30 23 30 47 48 38 29 28 28 27 32 36 38 39 38 32 24 20 15 11 12 12 10 6 6 8 18 20 19 15 10 11 20 38 47 50 52
43 47 50 48 49 44 54 58 60 54 27 15 9 8 12 42 35 22 18 18 21 27 31 34 35 32 29 25 23 19 15 14 12 13 15 13 8 4 5 13 26 43 12 10 12 28 45 55 63
45 50 52 35 29 24 21 30 64 47 9 6 7 5 6 36 26 17 16 22 30 35 37 37 34 28 24 22 21 19 17 15 14 12 12 12 11 13 6 4 9 24 57 11 11 23 30 48 68
49 52 41 30 25 20 21 29 39 31 13 9 6 5 7 34 15 18 23 29 34 33 34 31 27 24 22 19 17 14 9 6 6 6 6 6 6 6 8 10 5 4 44 63 20 14 23 39 59
57 55 46 42 29 24 22 17 22 17 10 7 7 9 10 30 20 24 30 32 35 32 29 27 23 21 16 12 7 6 4 2 2 2 2 2 2 2 4 4 9 7 20 81 45 25 20 25 51
42 43 48 51 47 36 32 22 28 16 15 10 10 10 12 28 27 30 36 30 33 33 27 21 23 17 12 7 5 2 6 14 22 27 21 7 3 2 2 2 3 8 8 48 89 34 18 22 43
45 51 48 38 44 36 31 39 12 25 12 10 11 10 19 31 25 30 28 30 36 33 26 26 20 11 7 5 3 7 24 28 25 35 37 35 25 20 14 2 2 2 7 6 44 96 47 30 32
32 34 41 32 25 17 26 46 11 14 13 11 10 11 22 19 24 39 39 37 41 31 29 24 14 8 5 3 5 25 33 45 24 27 35 31 23 30 34 24 8 2 2 6 25 46 86 39 33
23 22 21 29 29 18 44 34 15 16 18 18 19 23 22 20 29 38 40 49 40 36 32 18 12 7 4 2 14 39 65 24 23 38 55 49 34 30 24 39 15 4 2 3 7 58 98 65 52
58 40 50 41 29 18 42 27 23 24 28 27 26 26 35 42 41 46 57 52 41 38 30 19 11 6 3 2 17 33 71 29 26 66 79 48 51 50 34 28 32 10 12 3 4 43 73 97 68
58 46 69 70 63 46 42 39 32 33 39 38 41 44 48 59 53 60 62 54 43 40 30 20 11 5 3 2 18 42 74 37 38 91 90 57 45 36 50 32 34 28 21 21 6 28 38 97 91
78 62 70 68 62 62 57 67 57 50 54 56 56 62 65 65 56 64 67 51 46 38 28 17 10 5 4 2 19 50 65 52 29 82 99 80 71 87 72 64 34 46 25 25 13 8 17 59 99
98 89 87 99 97 84 82 76 74 79 72 58 64 76 78 63 68 73 55 55 49 42 26 17 9 5 4 3 10 44 56 64 26 84 97 99 67 76 78 74 53 41 38 17 19 8 11 52 93
100 99 100 87 88 98 99 83 84 73 63 68 73 82 66 54 64 60 57 59 57 44 26 14 9 6 4 3 7 36 54 76 23 50 100 100 100 67 79 78 48 41 44 34 30 35 8 9 73

GFSSGP_500_rhum_153.txt.gz
RH
6 7 8 9 11 11 13 17 19 22 22 29 36 39 44 46 43 40 37 22 19 18 16 13 12 10 10 10 10 11 13 14 11 10 9 8 9 9 7 4 4 4 4 18 12 11 14 18 24
7 7 7 9 10 17 16 18 20 21 26 31 36 39 44 44 44 40 32 19 19 21 18 14 13 11 11 11 12 12 12 13 12 11 10 9 9 10 10 7 13 11 6 7 25 21 16 18 19
9 8 8 8 12 17 18 18 21 17 17 28 33 34 43 46 46 35 30 19 18 16 14 12 13 11 11 12 10 10 9 10 10 9 9 9 8 11 11 9 9 12 17 19 26 25 18 11 10
13 11 10 9 11 16 14 14 14 13 14 14 11 12 29 40 30 17 15 21 19 15 12 10 12 22 36 18 7 8 8 8 9 9 10 9 9 8 11 12 6 7 15 20 24 22 22 14 13
19 17 14 12 12 12 13 11 12 11 12 13 11 12 17 20 21 15 14 20 17 12 10 12 12 14 19 26 24 11 9 10 11 13 13 13 12 10 8 12 11 6 7 15 16 22 32 14 8
21 20 20 18 16 14 14 14 14 13 14 14 14 12 12 18 16 14 13 14 13 13 11 10 11 11 11 10 8 8 8 10 11 12 13 15 16 14 13 13 14 8 5 9 12 18 22 13 8
24 25 24 24 22 21 19 18 18 17 15 14 14 19 22 20 13 10 9 9 14 12 11 10 10 10 9 9 9 9 9 8 8 10 13 16 17 16 14 12 16 15 8 7 8 11 16 10 7
20 26 28 30 26 24 23 22 22 20 19 18 17 17 20 13 10 11 12 14 18 22 21 19 16 15 15 16 16 17 14 15 17 14 14 15 16 21 19 15 13 17 16 10 7 7 9 7 7
16 21 24 26 27 26 29 28 27 26 24 23 21 21 26 22 20 18 16 18 18 18 23 25 24 22 22 23 24 24 22 27 25 40 51 51 26 17 21 18 16 15 19 16 12 8 7 7 7
15 15 17 19 22 25 30 33 33 33 32 32 33 30 32 38 28 24 27 24 24 24 24 26 30 32 31 29 27 28 31 39 50 53 48 43 60 52 21 24 21 19 20 22 18 13 8 6 6
22 20 19 21 28 39 47 46 47 47 47 47 44 39 37 33 33 34 35 40 42 40 39 40 43 44 44 41 38 36 38 41 44 45 58 58 50 51 62 28 25 22 22 25 23 20 15 12 7
34 30 27 25 30 35 50 60 61 55 51 50 49 51 50 48 46 47 49 56 60 59 55 52 48 44 44 46 46 44 40 36 31 18 26 54 64 58 48 57 22 23 26 26 29 25 22 17 12
50 46 38 38 43 38 46 55 52 54 51 39 46 56 59 61 60 60 64 66 60 53 49 43 38 33 31 31 31 29 25 22 20 16 12 11 36 58 74 68 55 24 24 29 31 32 27 22 18
46 47 48 43 46 41 44 39 39 48 38 38 44 54 61 65 69 66 64 55 48 43 40 36 32 32 32 32 31 29 25 18 16 16 16 16 12 15 33 56 65 49 27 26 29 35 37 29 22
25 34 43 50 49 51 40 34 37 40 33 43 51 54 56 61 62 55 55 44 30 24 23 26 27 28 29 33 35 34 33 29 24 18 15 14 13 13 13 26 49 47 43 32 24 27 38 40 30
37 44 50 60 56 58 55 52 51 50 47 51 50 52 50 50 51 49 39 24 17 20 21 17 16 16 15 18 26 33 38 37 35 34 31 16 10 9 11 12 15 52 47 42 40 26 30 45 44
41 49 52 60 54 60 55 56 52 50 54 54 45 39 40 47 49 41 28 14 16 17 15 12 10 8 8 14 20 28 31 31 28 24 23 24 22 15 11 9 8 9 40 53 46 38 24 34 47
42 32 41 48 52 52 54 52 46 38 34 24 29 30 22 19 19 16 14 12 11 12 10 6 7 8 7 10 15 22 23 24 24 22 20 18 18 19 17 15 13 7 5 19 46 55 35 34 44
42 45 50 53 54 48 48 46 34 26 23 16 16 8 6 14 15 16 13 10 9 10 8 6 9 10 10 13 16 18 15 19 20 17 12 11 13 13 15 16 15 12 9 5 15 54 78 46 40
38 42 55 60 54 52 43 42 32 27 20 14 9 8 8 13 17 13 10 10 11 11 12 11 12 16 23 22 19 15 10 6 5 4 4 4 3 4 5 7 12 13 13 12 7 16 66 87 47
42 40 52 55 56 46 36 26 24 22 16 14 11 11 11 16 18 14 13 14 12 12 16 27 27 26 24 22 18 15 9 8 7 5 3 2 8 9 4 3 3 6 10 10 9 8 31 90 100
18 46 47 60 62 44 41 23 31 31 22 18 15 15 14 14 17 13 15 15 13 19 20 24 32 27 27 21 16 15 12 8 4 4 4 18 20 18 19 22 17 3 4 8 6 8 9 40 91
18 21 43 61 56 47 38 32 16 22 16 18 18 17 16 17 16 18 24 21 19 21 24 37 36 33 25 20 19 18 13 8 5 3 15 36 32 28 31 31 30 27 3 3 4 6 6 15 69
55 41 18 32 53 48 42 43 12 12 14 20 20 18 17 16 18 22 24 23 25 24 27 26 31 28 24 23 24 18 12 8 4 6 20 37 18 22 34 30 28 24 22 4 2 2 3 4 82
60 83 64 32 40 20 28 38 16 12 14 14 15 20 23 26 24 22 22 21 26 28 29 30 36 29 29 30 24 16 10 7 3 6 35 40 20 40 56 52 44 38 26 21 5 2 2 6 16
71 70 81 99 87 45 24 17 15 16 16 17 23 33 34 36 33 28 25 31 34 32 30 32 31 30 35 33 20 14 10 6 2 7 54 41 44 79 48 46 38 34 33 23 24 3 2 6 12
46 53 84 100 98 76 54 36 23 25 40 36 40 51 51 51 45 37 34 36 40 44 27 26 32 37 40 35 27 15 8 4 2 8 43 46 36 80 81 78 47 42 36 39 32 20 3 3 12
47 74 98 87 86 82 61 53 42 40 50 50 54 58 65 64 52 46 49 54 55 35 26 32 33 44 41 39 28 14 8 3 2 8 49 49 28 81 85 88 70 79 50 52 40 33 15 9 4
74 96 100 100 97 97 87 72 65 58 64 70 69 82 78 68 57 62 59 57 48 34 37 36 40 46 47 40 26 12 9 4 2 4 33 54 26 74 90 94 76 71 83 76 46 42 44 32 5
69 79 68 86 75 99 99 70 72 84 82 82 85 84 83 70 69 74 63 64 56 46 46 44 45 51 48 39 21 13 10 4 3 2 16 66 31 45 98 100 88 77 79 86 66 59 67 34 9